Regional Weather Roundup
Issued by NWS

Home | Current Version | Previous Version | Graphics & Text | Print | Product List | Glossary On
Versions: 1 2 3 4 5 6 7 8 9 10 11 12 13 14 15 16 17 18 19 20 21 22 23 24 25 26 27 28
000
ASUS45 KTFX 160510
RWRMT
MONTANA REGIONAL WEATHER ROUNDUP
NATIONAL WEATHER SERVICE GREAT FALLS MT
1100 PM MDT SUN OCT 15 2017

NOTE: "FAIR" INDICATES FEW OR NO CLOUDS BELOW 12000 FEET WITH NO
SIGNIFICANT WEATHER AND/OR OBSTRUCTIONS TO VISIBILITY.

MTZ001>007-043-160600-
WEST OF THE DIVIDE

CITY           SKY/WX    TMP DP  RH WIND       PRES   REMARKS
KALISPELL      CLEAR     32  30  92 CALM      30.21S
MISSOULA       PTCLDY    39  32  76 CALM      30.25S
BUTTE          CLOUDY    34  28  79 E5        30.29F
MULLAN PASS    CLEAR     39  21  48 VRB7      30.28S
ANACONDA         N/A     45  27  49 SW3       30.26S
DEER LODGE       N/A     39  30  70 W3        30.27S
EUREKA           N/A     45  34  65 MISG      30.19F
HAMILTON         N/A     45  30  57 S7        30.26S
LIBBY            N/A     36  34  93 SW5       30.22S
$$

MTZ008-052>055-160600-
SOUTHWEST MONTANA

CITY           SKY/WX    TMP DP  RH WIND       PRES   REMARKS
BOZEMAN        CLOUDY    38  31  76 SE10      30.25F WCI  31
DILLON         CLOUDY    42  24  49 S10       30.30S
W YELLOWSTONE  CLOUDY    27  21  80 CALM      30.43F
ENNIS          CLOUDY    45  25  45 S16G22    30.36F
THREE FORKS      N/A     47  27  46 CALM      30.21F
$$

MTZ009-010-012-014-046-048-049-054-160600-
EAST SLOPES AND CENTRAL MONTANA

CITY           SKY/WX    TMP DP  RH WIND       PRES   REMARKS
GREAT FALLS    CLEAR     52  30  43 SW14      30.12S
MALMSTROM AFB  CLEAR     52  31  45 SW20G30   30.10F
HELENA         CLOUDY    46  33  60 S3        30.20S
BOWMANS CRNR     N/A     48  30  50 SW14      30.13F
CHOTEAU          N/A     48  32  53 SW8       30.12F
FAIRFIELD        N/A     53  30  41 S14       30.11S
POWER            N/A     48  31  50 SW12      30.09F
RAYNESFORD       N/A     57  29  34 SW12G26   30.13F
ULM              N/A     51  32  48 S14       30.14F
$$

MTZ011-013-016-021-045-047-050-051-160600-
NORTH CENTRAL MONTANA

CITY           SKY/WX    TMP DP  RH WIND       PRES   REMARKS
HAVRE          CLEAR     48  34  58 SW15      30.01S
N BAR RANCH      N/A     41  27  56 SW8       30.15F
CHINOOK          N/A     52  34  50 W17       29.98F
DENTON           N/A     50  31  47 W13       30.07S
GEYSER           N/A     51  31  46 W24G33    30.07F
GRASS RANGE      N/A     51  31  45 W17       30.07F
JUDITH GAP       N/A     51  28  41 S24       30.16S
WINIFRED         N/A     48  31  53 SW7       30.09S
$$

MTZ017>020-022>027-061-062-160600-
NORTHEAST MONTANA

CITY           SKY/WX    TMP DP  RH WIND       PRES   REMARKS
GLASGOW        CLOUDY    44  34  67 SE10      30.01F
JORDAN           N/A     36  30  79 W5        30.07F
SIDNEY         CLEAR     35  29  78 S8        30.10F WCI  29
WOLF POINT     CLEAR     37  28  70 CALM      30.04F
MALTA          CLEAR     37  34  87 CALM      30.00F
PLENTYWOOD       N/A     41  28  60 CALM      30.03F
POPLAR           N/A     43  28  56 CALM      30.05F
$$

MTZ028>42-056>058-160600-
SOUTHCENTRAL AND SOUTHEAST MONTANA

CITY           SKY/WX    TMP DP  RH WIND       PRES   REMARKS
BAKER          CLEAR     43  30  60 S10       30.17F
BILLINGS       CLEAR     53  27  36 W15       30.17S
LIVINGSTON     CLEAR     53  27  36 SW37G45   30.21F
MILES CITY     CLOUDY    42  31  64 SE10      30.13F
BIG TIMBER     CLEAR     48  25  40 W12       30.24S
FORSYTH          N/A     50  28  43 CALM      30.13F
HARLOWTON        N/A     51  27  39 MISG      30.18S
LAUREL           N/A     52  25  35 SW17      30.18F
$$

REGIONAL REPORTS...DAKOTAS

CITY           SKY/WX    TMP DP  RH WIND       PRES   REMARKS
WILLISTON      CLEAR     37  29  72 S3        30.09F
MINOT          PTCLDY    42  31  64 SW10      30.09F
DICKINSON      CLEAR     36  27  69 S10       30.13F WCI  28
BEACH            N/A     37  28  70 SW9       30.16F WCI  31
CROSBY           N/A     39  30  70 S12       30.04F WCI  32
TIOGA            N/A     37  28  70 S9        30.08F WCI  31
BISMARCK       CLOUDY    34  30  85 CALM      30.19S
GRAND FORKS    CLEAR     38  32  79 SW7       30.13F
FARGO          CLEAR     36  32  85 SW6       30.17S WCI  31
BUFFALO SD       N/A     39  27  62 SW6       30.14F
RAPID CITY     CLEAR     42  28  57 CALM      30.27F
$$

REGIONAL REPORTS...WYOMING/IDAHO/WASHINGTON

CITY           SKY/WX    TMP DP  RH WIND       PRES   REMARKS
GILLETTE       CLEAR     41  28  60 E5        30.24F
SHERIDAN       CLEAR     35  27  72 CALM      30.22S
BUFFALO WY     CLOUDY    41  21  44 NW3       30.26S
CODY           CLOUDY    53  25  33 W10G17    30.28F
YELLOWSTONE LA   N/A     25  23  92 CALM      30.48S
IDAHO FALLS    CLOUDY    35  26  69 NW5       30.41F
SALMON         CLOUDY    35  26  69 CALM      30.35R
BOISE          CLEAR     43  29  57 SE6       30.35S
SPOKANE        CLEAR     40  33  76 SW3       30.25F
$$

REGIONAL REPORTS...ALBERTA

CITY           SKY/WX    TMP DP  RH WIND       PRES   REMARKS
EDMONTON       CLEAR     45  30  57 SW6       29.74S
CALGARY        PTCLDY    54  18  24 W16G24    29.86F
LETHBRIDGE     CLEAR     54  32  43 SW24G39   29.94R
MEDICINE HAT   CLEAR     48  34  57 SW15G22   29.88F
$$

REGIONAL REPORTS...SASKATCHEWAN

CITY           SKY/WX    TMP DP  RH WIND       PRES   REMARKS
SWIFT CURRENT  CLEAR     46  32  57 SW17G23   29.86F
REGINA         PTCLDY    37  25  60 S14       29.92F WCI  29
SASKATOON      MOCLDY    41  28  60 S8        29.80F
$$




USA.gov is the U.S. government's official web portal to all federal, state and local government web resources and services.